Voltar ao catálogo

TITAN 34B AGENA D DEB

AtivoHEO
NORAD 23811·DEBRIS·🇺🇸 United States

Lançado Jul 31, 1983 de Vandenberg Space Force Base

Loading…

Próximas Passagens (próximas 24 horas)

TLE

AtualizadoSource: Space-Track

Época: Sep 13, 2026, 18:08 UTC

1 23811U 83078C   26256.75579120  .00004708  00000-0  23244-2 0  9994
2 23811  63.3576  53.5226 4881983 248.9633  53.4631  5.71138283143082

Acompanhe TITAN 34B AGENA D DEB em tempo real com AllMySat

Download on the App Store